HVDC transfer

From www.emi.ea.govt.nz provided by the Electricity Authority (New Zealand)
Run at: 20240504113230

Parameters
Date range,18 Jul 2019 - 18 Jul 2019
Time scale,Trading period
Show,Average flow (MW)

Period start,Period end,Trading period,Direction,Energy transfer (GWh),Peak flow (MW),Average flow (MW)
18/07/2019 00:00:00,18/07/2019 00:30:00,1,Northward at Haywards,0.069,137,137
18/07/2019 00:30:00,18/07/2019 01:00:00,2,Northward at Haywards,0.074,147,147
18/07/2019 01:00:00,18/07/2019 01:30:00,3,Northward at Haywards,0.074,147,147
18/07/2019 01:30:00,18/07/2019 02:00:00,4,Northward at Haywards,0.042,84,84
18/07/2019 02:00:00,18/07/2019 02:30:00,5,Northward at Haywards,0.030,60,60
18/07/2019 02:30:00,18/07/2019 03:00:00,6,Northward at Haywards,0.031,61,61
18/07/2019 03:00:00,18/07/2019 03:30:00,7,Northward at Haywards,0.043,86,86
18/07/2019 03:30:00,18/07/2019 04:00:00,8,Northward at Haywards,0.027,54,54
18/07/2019 04:00:00,18/07/2019 04:30:00,9,Southward at Benmore,-0.029,-59,-59
18/07/2019 04:30:00,18/07/2019 05:00:00,10,Southward at Benmore,-0.058,-117,-117
18/07/2019 05:00:00,18/07/2019 05:30:00,11,Northward at Haywards,0.007,14,14
18/07/2019 05:30:00,18/07/2019 06:00:00,12,Northward at Haywards,0.004,7,7
18/07/2019 06:00:00,18/07/2019 06:30:00,13,Northward at Haywards,0.013,25,25
18/07/2019 06:30:00,18/07/2019 07:00:00,14,Northward at Haywards,0.065,129,129
18/07/2019 07:00:00,18/07/2019 07:30:00,15,Northward at Haywards,0.172,343,343
18/07/2019 07:30:00,18/07/2019 08:00:00,16,Northward at Haywards,0.219,438,438
18/07/2019 08:00:00,18/07/2019 08:30:00,17,Northward at Haywards,0.252,504,504
18/07/2019 08:30:00,18/07/2019 09:00:00,18,Northward at Haywards,0.249,498,498
18/07/2019 09:00:00,18/07/2019 09:30:00,19,Northward at Haywards,0.251,502,502
18/07/2019 09:30:00,18/07/2019 10:00:00,20,Northward at Haywards,0.228,455,455
18/07/2019 10:00:00,18/07/2019 10:30:00,21,Northward at Haywards,0.226,452,452
18/07/2019 10:30:00,18/07/2019 11:00:00,22,Northward at Haywards,0.206,411,411
18/07/2019 11:00:00,18/07/2019 11:30:00,23,Northward at Haywards,0.191,382,382
18/07/2019 11:30:00,18/07/2019 12:00:00,24,Northward at Haywards,0.190,380,380
18/07/2019 12:00:00,18/07/2019 12:30:00,25,Northward at Haywards,0.174,348,348
18/07/2019 12:30:00,18/07/2019 13:00:00,26,Northward at Haywards,0.187,373,373
18/07/2019 13:00:00,18/07/2019 13:30:00,27,Northward at Haywards,0.205,409,409
18/07/2019 13:30:00,18/07/2019 14:00:00,28,Northward at Haywards,0.213,426,426
18/07/2019 14:00:00,18/07/2019 14:30:00,29,Northward at Haywards,0.227,453,453
18/07/2019 14:30:00,18/07/2019 15:00:00,30,Northward at Haywards,0.213,425,425
18/07/2019 15:00:00,18/07/2019 15:30:00,31,Northward at Haywards,0.213,426,426
18/07/2019 15:30:00,18/07/2019 16:00:00,32,Northward at Haywards,0.191,381,381
18/07/2019 16:00:00,18/07/2019 16:30:00,33,Northward at Haywards,0.207,414,414
18/07/2019 16:30:00,18/07/2019 17:00:00,34,Northward at Haywards,0.183,365,365
18/07/2019 17:00:00,18/07/2019 17:30:00,35,Northward at Haywards,0.238,475,475
18/07/2019 17:30:00,18/07/2019 18:00:00,36,Northward at Haywards,0.233,466,466
18/07/2019 18:00:00,18/07/2019 18:30:00,37,Northward at Haywards,0.273,545,545
18/07/2019 18:30:00,18/07/2019 19:00:00,38,Northward at Haywards,0.279,557,557
18/07/2019 19:00:00,18/07/2019 19:30:00,39,Northward at Haywards,0.283,565,565
18/07/2019 19:30:00,18/07/2019 20:00:00,40,Northward at Haywards,0.276,552,552
18/07/2019 20:00:00,18/07/2019 20:30:00,41,Northward at Haywards,0.287,573,573
18/07/2019 20:30:00,18/07/2019 21:00:00,42,Northward at Haywards,0.250,499,499
18/07/2019 21:00:00,18/07/2019 21:30:00,43,Northward at Haywards,0.186,372,372
18/07/2019 21:30:00,18/07/2019 22:00:00,44,Northward at Haywards,0.166,331,331
18/07/2019 22:00:00,18/07/2019 22:30:00,45,Northward at Haywards,0.165,329,329
18/07/2019 22:30:00,18/07/2019 23:00:00,46,Northward at Haywards,0.166,332,332
18/07/2019 23:00:00,18/07/2019 23:30:00,47,Northward at Haywards,0.087,174,174
18/07/2019 23:30:00,19/07/2019 00:00:00,48,Northward at Haywards,0.064,128,128
